User: anonymous   Login
Location: Radomski Observatory
(40.2854°N, 79.5145°W)
Time: 08:15:32
(UTC-04:00)
Language:

Uosat F - Orbit

View from above orbital plane
View from above orbital plane
View from above satellite
View from above satellite

Ground track
Ground track

The orbit data is extracted from the following two-line orbital elements,

1 21575U 91050B   16207.88907280  .00000027  00000-0  23092-4 0  9992
2 21575  98.7615 210.3860 0007182 182.2493 177.8664 14.40750222314290
Epoch (UTC): 25 July 2016 21:20:15
Eccentricity: 0.0007182
inclination: 98.7615°
perigee height: 751 km
apogee height: 761 km
right ascension of ascending node: 210.3860°
argument of perigee: 182.2493°
revolutions per day: 14.40750222
mean anomaly at epoch: 177.8664°
orbit number at epoch: 31429

The dashed part of the orbit path shows where the satellite is in the earth's shadow,  

DLR